Regional Weather Roundup
Issued by NWS

Home | Current Version | Previous Version | Text Only | Print | Product List | Glossary Off
Versions: 1 2 3 4 5 6 7 8 9 10 11 12 13 14 15 16 17 18 19 20 21 22 23 24 25 26 27 28 29 30 31 32 33 34 35 36 37 38 39 40 41 42 43 44 45 46 47 48 49 50

000
ASUS43 KOAX 251910
RWRNE

WEATHER ROUNDUP FOR NEBRASKA
NATIONAL WEATHER SERVICE OMAHA NE
200 PM CDT SAT MAR 25 2017

NOTES: SATELLITE DATA IS BEING USED TO AUGMENT CLOUD COVER ABOVE
       12000 FEET.
       "FAIR" INDICATES FEW OR NO CLOUDS BELOW 12,000 FEET WITH NO
       SIGNIFICANT WEATHER AND/OR OBSTRUCTIONS TO VISIBILITY.

  * THESE STATIONS DO NOT REPORT WEATHER SUCH AS RAIN...SNOW OR FOG.

NEZ001>004-019>022-054>056-252000-
NEBRASKA PANHANDLE

CITY           SKY/WX    TMP DP  RH WIND       PRES   REMARKS
SCOTTSBLUFF    CLOUDY    64  31  28 SW8       29.92F
ALLIANCE       CLOUDY    62  30  29 S16       29.93F
CHADRON        CLOUDY    67  29  24 VRB5      29.88F
KIMBALL        CLOUDY    59  33  37 SW9       29.97F
SIDNEY         SUNNY     58  30  34 S10       29.97F
$$

NEZ057>060-069>072-079>082-252000-
SOUTHWEST NEBRASKA

CITY           SKY/WX    TMP DP  RH WIND       PRES   REMARKS
NORTH PLATTE   SUNNY     58  29  33 SW5       29.98F
IMPERIAL       SUNNY     56  27  32 CALM      29.99F
LEXINGTON      CLOUDY    47  41  79 N7        29.99F
MCCOOK         SUNNY     59  34  39 VRB5      29.98F
OGALLALA       SUNNY     58  25  27 SW5       29.98F
$$

NEZ005>010-023>029-035>040-094-252000-
NORTH CENTRAL NEBRASKA

CITY           SKY/WX    TMP DP  RH WIND       PRES   REMARKS
VALENTINE      SUNNY     59  16  18 SE9       29.98F
AINSWORTH      SUNNY     51  37  60 E3        30.00F
BROKEN BOW     PTSUNNY   46  41  82 N9        29.98F
O`NEILL        CLOUDY    38  38  99 NE5       30.02F WCI  35
ORD            CLOUDY    41  37  86 N8        29.99F
THEDFORD       SUNNY     59  26  27 SE7       29.98F
$$

NEZ041-046>049-061>064-073>077-083>087-252000-
SOUTH CENTRAL NEBRASKA

CITY           SKY/WX    TMP DP  RH WIND       PRES   REMARKS
GRAND ISLAND   CLOUDY    39  38  96 N12       30.00S WCI  32
AURORA         CLOUDY    37  37 100 N16       29.99F FOG     WCI  28
HASTINGS       CLOUDY    40  37  89 NE14      30.00S WCI  32
HEBRON         CLOUDY    40  38  94 N14       29.97F FOG     WCI  32
HOLDREGE       CLOUDY    42  39  88 N7        29.99F
KEARNEY *      CLOUDY    41  36  81 N12       30.00S
YORK           CLOUDY    37  37 100 N16       29.98F FOG     WCI  28
$$

NEZ011>018-030>034-042>045-252000-
NORTHEAST NEBRASKA

CITY           SKY/WX    TMP DP  RH WIND       PRES   REMARKS
NORFOLK        CLOUDY    38  36  92 N13       30.00F FOG     WCI  30
ALBION         CLOUDY    41  37  86 N12       30.00F
BLAIR          CLOUDY    41  39  93 N10G18    29.96S
FREMONT        DRIZZLE   40  39  98 N9G16     29.99S WCI  34
TEKAMAH        LGT RAIN  41  38  89 N16       29.99F
WAYNE          CLOUDY    39  38  99 NE15      30.01F FOG     WCI  30
$$

NEZ050>053-065>068-078-088>093-252000-
SOUTHEAST NEBRASKA

CITY           SKY/WX    TMP DP  RH WIND       PRES   REMARKS
LINCOLN        CLOUDY    42  39  89 N18       29.98S
OMAHA EPPLEY   LGT RAIN  43  38  82 N14       29.96S
BEATRICE       CLOUDY    42  41  95 N15       29.95S
NEBRASKA CITY  DRIZZLE   42  42 100 N16       29.92F
PLATTSMOUTH    CLOUDY    43  38  83 N8        29.94F
$$

NEZ044-045-051>053-067-252000-
OMAHA AREA

CITY           SKY/WX    TMP DP  RH WIND       PRES   REMARKS
OMAHA EPPLEY   LGT RAIN  43  38  82 N14       29.96S
BLAIR          CLOUDY    41  39  93 N10G18    29.96S
FREMONT        DRIZZLE   40  39  98 N9G16     29.99S WCI  34
MILLARD        CLOUDY    43  42  94 N6        29.97F
OFFUTT AFB     CLOUDY    43  39  87 N10       29.95F
PLATTSMOUTH    CLOUDY    43  38  83 N8        29.94F
WAHOO          CLOUDY    41  39  92 N17       29.97S
$$




USA.gov is the U.S. government's official web portal to all federal, state and local government web resources and services.